SB KEPS @ AMSAT $ORB09085.O Orbital Elements 09085.OSCAR
HR AMSAT ORBITAL ELEMENTS FOR OSCAR SATELLITES FROM WA5QGD FORT WORTH,TX March 26, 2009 Send Subscribe/unsubscribe to KEPS at http://www.amsat.org/mailman/listinfo/keps BID: ORB09085.O TO ALL RADIO AMATEURS BT
Satellite: AO-07 Catalog number: 07530 Epoch time: 09085.48917308 Element set: 435 Inclination: 101.4351 deg RA of node: 113.1799 deg Eccentricity: 0.0012083 Arg of perigee: 071.2498 deg Mean anomaly: 288.9888 deg Mean motion: 12.53575422 rev/day Decay rate: -2.7e-07 rev/day^2 Epoch rev: 57235 Checksum: 317
Satellite: AO-10 Catalog number: 14129 Epoch time: 09084.21263345 Element set: 636 Inclination: 025.9627 deg RA of node: 165.1988 deg Eccentricity: 0.5983618 Arg of perigee: 208.6717 deg Mean anomaly: 098.3335 deg Mean motion: 02.05871534 rev/day Decay rate: -3.81e-06 rev/day^2 Epoch rev: 19389 Checksum: 339
Satellite: UO-11 Catalog number: 14781 Epoch time: 09084.63394756 Element set: 0920 Inclination: 098.1171 deg RA of node: 128.3078 deg Eccentricity: 0.0008040 Arg of perigee: 245.6597 deg Mean anomaly: 114.3761 deg Mean motion: 14.79702343 rev/day Decay rate: 3.32e-06 rev/day^2 Epoch rev: 34547 Checksum: 308
Satellite: RS-15 Catalog number: 23439 Epoch time: 09084.96447069 Element set: 0196 Inclination: 064.8131 deg RA of node: 039.3921 deg Eccentricity: 0.0146577 Arg of perigee: 067.6634 deg Mean anomaly: 293.9748 deg Mean motion: 11.27553267 rev/day Decay rate: -3.9e-07 rev/day^2 Epoch rev: 58673 Checksum: 355
Satellite: FO-29 Catalog number: 24278 Epoch time: 09085.54575694 Element set: 4 Inclination: 098.5652 deg RA of node: 330.6426 deg Eccentricity: 0.0350398 Arg of perigee: 204.3554 deg Mean anomaly: 154.0666 deg Mean motion: 13.52942088 rev/day Decay rate: -1.07e-06 rev/day^2 Epoch rev: 62257 Checksum: 326
Satellite: SO-33 Catalog number: 25509 Epoch time: 09084.59847366 Element set: 416 Inclination: 031.4337 deg RA of node: 165.1543 deg Eccentricity: 0.0355063 Arg of perigee: 327.6082 deg Mean anomaly: 030.3194 deg Mean motion: 14.28246298 rev/day Decay rate: 4.3e-07 rev/day^2 Epoch rev: 54387 Checksum: 314
Satellite: AO-40 Catalog number: 26609 Epoch time: 09085.02556956 Element set: 205 Inclination: 009.0132 deg RA of node: 026.5737 deg Eccentricity: 0.7956986 Arg of perigee: 188.2915 deg Mean anomaly: 137.1619 deg Mean motion: 01.25585175 rev/day Decay rate: -3.24e-06 rev/day^2 Epoch rev: 3858 Checksum: 334
Satellite: RS-22 Catalog number: 27939 Epoch time: 09084.70777202 Element set: 0749 Inclination: 097.9573 deg RA of node: 322.5603 deg Eccentricity: 0.0014432 Arg of perigee: 039.1044 deg Mean anomaly: 321.1197 deg Mean motion: 14.63302864 rev/day Decay rate: 5.7e-07 rev/day^2 Epoch rev: 29336 Checksum: 310
Satellite: VO-52 Catalog number: 28650 Epoch time: 09084.84394956 Element set: 0188 Inclination: 097.7505 deg RA of node: 149.1491 deg Eccentricity: 0.0026264 Arg of perigee: 303.4523 deg Mean anomaly: 056.4130 deg Mean motion: 14.81563845 rev/day Decay rate: -1.38e-06 rev/day^2 Epoch rev: 21030 Checksum: 309
Satellite: PO-63 Catalog number: 29712 Epoch time: 09085.22546733 Element set: 344 Inclination: 097.8377 deg RA of node: 143.5870 deg Eccentricity: 0.0014032 Arg of perigee: 180.3660 deg Mean anomaly: 179.7544 deg Mean motion: 14.80482195 rev/day Decay rate: 5.16e-06 rev/day^2 Epoch rev: 11919 Checksum: 320
/EX SB KEPS @ AMSAT $ORB09085.D Orbital Elements 09085.MICROS
HR AMSAT ORBITAL ELEMENTS FOR THE MICROSATS FROM WA5QGD FORT WORTH,TX March 26, 2009 Send Subscribe/unsubscribe to KEPS at http://www.amsat.org/mailman/listinfo/keps BID: ORB09085.D TO ALL RADIO AMATEURS BT
Satellite: AO-16 Catalog number: 20439 Epoch time: 09085.39466014 Element set: 565 Inclination: 098.2700 deg RA of node: 057.6000 deg Eccentricity: 0.0011887 Arg of perigee: 058.8355 deg Mean anomaly: 301.3999 deg Mean motion: 14.31819339 rev/day Decay rate: 1.0e-07 rev/day^2 Epoch rev: 130 Checksum: 291
Satellite: LO-19 Catalog number: 20442 Epoch time: 09084.48704021 Element set: 485 Inclination: 098.2330 deg RA of node: 064.3171 deg Eccentricity: 0.0013005 Arg of perigee: 057.3583 deg Mean anomaly: 302.8893 deg Mean motion: 14.32055914 rev/day Decay rate: 8.2e-07 rev/day^2 Epoch rev: 133 Checksum: 268
Satellite: AO-27 Catalog number: 22825 Epoch time: 09085.39836204 Element set: 207 Inclination: 098.4273 deg RA of node: 041.4654 deg Eccentricity: 0.0008866 Arg of perigee: 143.1442 deg Mean anomaly: 217.0372 deg Mean motion: 14.29261133 rev/day Decay rate: -5.8e-07 rev/day^2 Epoch rev: 80808 Checksum: 301
Satellite: IO-26 Catalog number: 22826 Epoch time: 09085.47311506 Element set: 928 Inclination: 098.4205 deg RA of node: 042.3221 deg Eccentricity: 0.0009388 Arg of perigee: 139.1974 deg Mean anomaly: 220.9910 deg Mean motion: 14.29512791 rev/day Decay rate: 2.2e-07 rev/day^2 Epoch rev: 80819 Checksum: 305
Satellite: GO-32 Catalog number: 25397 Epoch time: 09084.61888741 Element set: 0853 Inclination: 098.3345 deg RA of node: 111.4089 deg Eccentricity: 0.0001948 Arg of perigee: 111.8661 deg Mean anomaly: 248.2736 deg Mean motion: 14.23156405 rev/day Decay rate: 2.0e-08 rev/day^2 Epoch rev: 55624 Checksum: 312
Satellite: NO-44 Catalog number: 26931 Epoch time: 09084.88888789 Element set: 0131 Inclination: 067.0513 deg RA of node: 278.9432 deg Eccentricity: 0.0005158 Arg of perigee: 263.9205 deg Mean anomaly: 096.1286 deg Mean motion: 14.29552260 rev/day Decay rate: 2.02e-06 rev/day^2 Epoch rev: 39067 Checksum: 329
Satellite: SO-50 Catalog number: 27607 Epoch time: 09085.33910921 Element set: 845 Inclination: 064.5569 deg RA of node: 276.7131 deg Eccentricity: 0.0075807 Arg of perigee: 223.6419 deg Mean anomaly: 135.8698 deg Mean motion: 14.71423505 rev/day Decay rate: 2.23e-06 rev/day^2 Epoch rev: 33648 Checksum: 323
Satellite: CO-55 Catalog number: 27844 Epoch time: 09084.53174748 Element set: 541 Inclination: 098.7160 deg RA of node: 094.8738 deg Eccentricity: 0.0010613 Arg of perigee: 028.9025 deg Mean anomaly: 331.2736 deg Mean motion: 14.20628248 rev/day Decay rate: 3.8e-07 rev/day^2 Epoch rev: 29738 Checksum: 325
Satellite: CO-57 Catalog number: 27848 Epoch time: 09084.56809806 Element set: 487 Inclination: 098.7174 deg RA of node: 093.9713 deg Eccentricity: 0.0010489 Arg of perigee: 031.2323 deg Mean anomaly: 328.9491 deg Mean motion: 14.20431789 rev/day Decay rate: 3.9e-07 rev/day^2 Epoch rev: 29735 Checksum: 351
Satellite: AO-51 Catalog number: 28375 Epoch time: 09084.96671081 Element set: 0348 Inclination: 098.0561 deg RA of node: 099.4125 deg Eccentricity: 0.0085061 Arg of perigee: 018.2022 deg Mean anomaly: 342.2177 deg Mean motion: 14.40636467 rev/day Decay rate: 2.0e-08 rev/day^2 Epoch rev: 24897 Checksum: 310
Satellite: CO-56 Catalog number: 28941 Epoch time: 09085.44881849 Element set: 932 Inclination: 098.1314 deg RA of node: 244.9850 deg Eccentricity: 0.0107671 Arg of perigee: 083.3449 deg Mean anomaly: 278.0161 deg Mean motion: 15.76058065 rev/day Decay rate: 6.8304e-04 rev/day^2 Epoch rev: 17418 Checksum: 346
Satellite: CP3 Catalog number: 31128 Epoch time: 09084.15062629 Element set: 0589 Inclination: 097.9979 deg RA of node: 141.1259 deg Eccentricity: 0.0102764 Arg of perigee: 184.9926 deg Mean anomaly: 175.0268 deg Mean motion: 14.52027267 rev/day Decay rate: -4.7e-07 rev/day^2 Epoch rev: 10270 Checksum: 321
Satellite: CP4 Catalog number: 31132 Epoch time: 09085.42826674 Element set: 567 Inclination: 098.0049 deg RA of node: 145.9325 deg Eccentricity: 0.0085845 Arg of perigee: 170.3750 deg Mean anomaly: 189.9146 deg Mean motion: 14.55193074 rev/day Decay rate: 2.34e-06 rev/day^2 Epoch rev: 10299 Checksum: 321
Satellite: CO-65 Catalog number: 32785 Epoch time: 09085.45437319 Element set: 324 Inclination: 097.9549 deg RA of node: 150.0737 deg Eccentricity: 0.0014157 Arg of perigee: 303.3313 deg Mean anomaly: 056.6547 deg Mean motion: 14.81460451 rev/day Decay rate: -9.7e-07 rev/day^2 Epoch rev: 4919 Checksum: 321
/EX SB KEPS @ AMSAT $ORB09085.W Orbital Elements 09085.WEATHER
HR AMSAT ORBITAL ELEMENTS FOR WEATHER SATELLITES FROM WA5QGD FORT WORTH,TX March 26, 2009 Send Subscribe/unsubscribe to KEPS at http://www.amsat.org/mailman/listinfo/keps BID: ORB09085.W TO ALL RADIO AMATEURS BT
Satellite: NOAA-10 Catalog number: 16969 Epoch time: 09085.30141940 Element set: 549 Inclination: 098.6997 deg RA of node: 112.3718 deg Eccentricity: 0.0013203 Arg of perigee: 079.8405 deg Mean anomaly: 280.4266 deg Mean motion: 14.27383026 rev/day Decay rate: 8.1e-07 rev/day^2 Epoch rev: 17168 Checksum: 314
Satellite: NOAA-11 Catalog number: 19531 Epoch time: 09085.32794115 Element set: 561 Inclination: 098.7818 deg RA of node: 176.5644 deg Eccentricity: 0.0011588 Arg of perigee: 348.8598 deg Mean anomaly: 011.2329 deg Mean motion: 14.14890197 rev/day Decay rate: -1.96e-06 rev/day^2 Epoch rev: 5780 Checksum: 338
Satellite: NOAA-12 Catalog number: 21263 Epoch time: 09085.49759575 Element set: 52 Inclination: 098.7732 deg RA of node: 093.5164 deg Eccentricity: 0.0012977 Arg of perigee: 029.9141 deg Mean anomaly: 330.2776 deg Mean motion: 14.25571544 rev/day Decay rate: 3.7e-07 rev/day^2 Epoch rev: 92861 Checksum: 326
Satellite: MET-3/5 Catalog number: 21655 Epoch time: 09085.57082462 Element set: 575 Inclination: 082.5493 deg RA of node: 264.8644 deg Eccentricity: 0.0014508 Arg of perigee: 031.6281 deg Mean anomaly: 328.5707 deg Mean motion: 13.17018836 rev/day Decay rate: 5.1e-07 rev/day^2 Epoch rev: 84675 Checksum: 321
Satellite: MET-2/21 Catalog number: 22782 Epoch time: 09085.45186795 Element set: 414 Inclination: 082.5433 deg RA of node: 247.6311 deg Eccentricity: 0.0021451 Arg of perigee: 216.0644 deg Mean anomaly: 143.9072 deg Mean motion: 13.83634419 rev/day Decay rate: 4.7e-07 rev/day^2 Epoch rev: 78616 Checksum: 305
